Regional Weather Roundup
Issued by NWS

Home | Current Version | Previous Version | Text Only | Print | Product List | Glossary On
Versions: 1 2 3 4 5 6 7 8 9 10 11 12 13 14 15 16 17 18 19 20 21 22 23 24 25 26 27 28 29 30 31 32 33 34 35 36 37 38 39 40 41 42 43 44 45 46 47 48 49 50
873
ASUS44 KLIX 291110
RWRLA
LOUISIANA WEATHER ROUNDUP
NATIONAL WEATHER SERVICE NEW ORLEANS LA
600 AM CDT TUE JUL 29 2014

NOTE: "FAIR" INDICATES FEW OR NO CLOUDS BELOW 12,000 FEET WITH NO
      SIGNIFICANT WEATHER AND/OR OBSTRUCTIONS TO VISIBILITY.
      SKY/WX - SKY CONDITION AND SIGNIFICANT WEATHER.
      TMP - AIR TEMPERATURE.    DP   - DEWPOINT TEMPERATURE.
      RH  - RELATIVE HUMIDITY.  PRES - PRESSURE.
      HX  - HEAT INDEX.         WCI  - WIND CHILL INDEX.

*  THESE STATIONS ARE NOT NWS OR FAA STATIONS AND ARE NOT UNDER
   NWS QUALITY CONTROL.

LAZ040-048-061>063-065-066-069-291200-
SOUTHEAST LOUISIANA

CITY           SKY/WX    TMP DP  RH WIND       PRES   REMARKS
N.O. AUDUBON     N/A     81  70  68 MISG        N/A
N.O. INTL ARPT MOCLDY    79  68  69 N9        30.03R
N.O. LAKEFRONT PTCLDY    81  69  67 NE15      30.03R
N.O. DOWNTOWN* FAIR      81  64  57 N8        30.03R
SLIDELL        CLEAR     73  69  87 N3        30.03R
BATON ROUGE    CLOUDY    73  70  90 CALM      30.05R
BOOTHVILLE     CLOUDY    81  74  79 VRB5      30.01R
BELLE CHASSE   MOCLDY    78  69  73 N5        30.01R
BOGALUSA*      FAIR      70  66  87 CALM      30.06R
GALLIANO*      NOT AVBL
NEW ROADS*     CLOUDY    73  71  92 CALM      30.05R
GONZALES*      FAIR      76  74  93 CALM      30.03S
HAMMOND*       PTCLDY    72  68  88 N3        30.06R
HOUMA*         MOCLDY    78  72  81 N6        30.02S
PORT FOURCHON* CLOUDY    81  77  89 N6        30.03R

$$

LAZ041-044-053-054-291200-
SOUTHWEST LOUISIANA

CITY           SKY/WX    TMP DP  RH WIND       PRES   REMARKS
LAKE CHARLES   CLOUDY    78  72  81 N3        30.05R
LAFAYETTE      NOT AVBL
PATTERSON      CLOUDY    77  75  94 W5        30.08S
SALT POINT       N/A     80  76  87 CALM      30.03F
NEW IBERIA     CLOUDY    78  75  90 CALM      30.05S
CHENAULT AIRPK CLEAR     77  73  88 N8        30.05

$$

LAZ027-028-291200-
CENTRAL LOUISIANA

CITY           SKY/WX    TMP DP  RH WIND       PRES   REMARKS
FORT POLK      MOCLDY    74  71  91 NE5       30.07R
ALEXANDRIA INT PTCLDY    71  69  93 CALM      30.05R
ALEXANDRIA     PTCLDY    71  68  90 CALM      30.07R FOG

$$

LAZ001-002-291200-
NORTHWEST LOUISIANA

CITY           SKY/WX    TMP DP  RH WIND       PRES   REMARKS
SHREVEPORT     PTCLDY    74  69  85 CALM      30.08R
BARKSDALE AFB  MOCLDY    71  69  91 NE5       30.08R
DTN SHREVEPORT PTCLDY    72  69  90 N5        30.08R

$$

LAZ014-016-291200-
NORTHEAST LOUISIANA

CITY           SKY/WX    TMP DP  RH WIND       PRES   REMARKS
MONROE         CLEAR     67  65  93 CALM      30.07R
TALLULAH       CLEAR     62  60  93 CALM      30.06R

$$




USA.gov is the U.S. government's official web portal to all federal, state and local government web resources and services.